Weather in Kichera

Russia / Republic of Buryatia     55°56′25″N   110°06′12″E
temp.,
°C
wind,
m/s
gust,
m/s
humid.,
%
clouds,
%
prec.,
mm/h
press.,
hPa
HPBL,
m
12 august, fri
fri1223:00+11nw018380 0.0 100911
02:00+9n118514 0.0 100910
05:00+8n11856 0.0 100910
08:00+13ssw117183 0.0 1009208
11:00+14ssw216844 0.1 1009536
14:00+16ssw33636 1.1 1008745
17:00+15ssw336821 1.4 1008426
20:00+10s118910 2.3 100911
13 august, sat
sat1323:00+8wsw019030 0.0 100910
02:00+9sw118756 0.0 100911
05:00+10sw118784 0.0 100913
08:00+12ssw227832 0.0 1008272
11:00+15ssw4468100 0.1 1007673
14:00+15ssw4465100 0.6 1006662
17:00+14s2272100 0.3 1006263
20:00+10s019010 1.0 100610
14 august, sun
sun1423:00+9n228533 0.1 100610
02:00+10nw228063 0.1 100511
05:00+10nnw228253 0.0 100625
08:00+12nnw227050 0.0 1006298
11:00+16wnw11500 0.0 10051336
14:00+18sw22402 0.0 10041765
17:00+18ssw32412 0.0 10041199
20:00+12sw11707 0.0 100510
15 august, mon
mon1523:00+9ne117290 0.0 100610
02:00+8sw117482 0.0 100610
05:00+7sw0173100 0.0 100610
08:00+11sw1162100 0.1 1006104
11:00+15ssw345164 0.0 1005693
14:00+16ssw4547100 0.0 1004821
17:00+15s225371 0.0 1002457
20:00+10ssw2389100 1.4 1003107
16 august, tue
tue1623:00+9ssw229999 3.5 1004143
02:00+8sw249799 3.7 1005284
05:00+8ssw259897 0.5 1004310
08:00+8sw468897 1.2 1006345
11:00+7sw5789100 0.6 1007776
14:00+8sw5784100 1.1 10081067
17:00+7sw1488100 0.7 1008404
20:00+7s119398 1.8 1009108